Overview Statistics Trail Chart Weather Telemetry Raw packets
 

This is the latest recevied weather packets stored in our database for station/object CT2IRJ-11. If no packets are shown the sender has not sent any weather packets the latest 10 day(s).

<< 105 106 107 108 109 110 111 >>
Time Temp. Humidity Pressure Rain* Wind** Luminosity Snow
1787823307 20.56° C 78% 1011.9 hPa 0 mm - 557 W/m² -
1787823006 20.56° C 80% 1011.9 hPa 0 mm - 525 W/m² -
1787822706 20° C 82% 1012.2 hPa 0 mm - 338 W/m² -
1787822406 20.56° C 81% 1012.5 hPa 0 mm - 151 W/m² -
1787822106 20° C 81% 1012.2 hPa 0 mm - 441 W/m² -
1787821805 20° C 82% 1012.2 hPa 0 mm - 410 W/m² -
1787821506 20° C 84% 1012.2 hPa 0 mm - 367 W/m² -
1787821206 20° C 83% 1011.9 hPa 0 mm - 359 W/m² -
1787820906 19.44° C 84% 1012.2 hPa 0 mm - 169 W/m² -
1787820611 19.44° C 85% 1012.2 hPa 0 mm - 298 W/m² -
1787820306 19.44° C 84% 1012.2 hPa 0 mm - 314 W/m² -
1787820006 18.89° C 85% 1011.9 hPa 0 mm - 264 W/m² -
1787819706 18.89° C 86% 1011.9 hPa 0 mm - 206 W/m² -
1787819406 18.33° C 89% 1011.9 hPa 0 mm - 276 W/m² -
1787819106 18.33° C 89% 1011.5 hPa 0 mm - 208 W/m² -
1787818806 18.33° C 89% 1011.9 hPa 0 mm - 179 W/m² -
1787818506 17.78° C 90% 1011.5 hPa 0 mm - 166 W/m² -
1787818206 17.78° C 90% 1011.9 hPa 0 mm - 139 W/m² -
1787817905 17.78° C 91% 1011.9 hPa 0 mm - 296 W/m² -
1787817606 17.22° C 91% 1011.9 hPa 0 mm - 127 W/m² -
1787817306 16.67° C 92% 1011.9 hPa 0 mm - 86 W/m² -
1787817006 16.67° C 92% 1011.9 hPa 0 mm - 93 W/m² -
1787816706 16.67° C 93% 1011.5 hPa 0.25 mm - 67 W/m² -
1787816406 16.67° C 93% 1011.5 hPa 0.25 mm - 67 W/m² -
1787816106 16.67° C 93% 1011.2 hPa 0.25 mm - 56 W/m² -

* Rain latest hour (hover to see other rain measurements)
** Current wind speed in m/s (hover to see current wind gust speed)